[[{"header":{"parameterUnit":"m.s-1","parameterCategory":1,"la1":30.2991,"la2":30.254,"lo1":-89.0895,"lo2":-89.0444,"dy":0.0017,"dx":0.0017,"nx":28,"ny":28,"refTime":"2025-11-25T09:00:00:Z","depth":0,"parameterNumber":2,"parameterNumberName":"U-component_of_WINDS"},"data":[0,0,0,0,0,0,0,0,0,0,0,0,0,0,0,0,0,0,0,0,0,0,0,0,0,0,0,0,0,0,0,0,0,0,0,0,0,0,0,0,0,0,0,0,0,0,0,0,0,0,0,0,0,0,0,0,0,0,-1.391,-1.391,0,-1.3947,-1.3948,-1.3948,-1.3953,-1.3953,-1.3953,-1.3952,-1.3993,-1.3994,-1.3995,0,0,0,0,0,0,0,0,0,0,0,0,0,-1.3846,-1.3847,-1.391,-1.391,-1.3911,-1.3947,-1.3948,-1.3948,-1.3954,-1.3953,-1.3953,-1.3952,-1.3992,-1.3994,-1.3995,0,0,0,0,0,0,0,0,0,0,0,0,0,-1.3877,-1.3847,-1.391,-1.3918,-1.3919,-1.3947,-1.3948,-1.3948,-1.3954,-1.3953,-1.3953,-1.3952,-1.3992,-1.3994,-1.3996,-1.4019,0,0,-1.4002,-1.4003,0,0,0,0,0,0,0,0,-1.3875,-1.388,-1.3916,-1.3917,-1.3919,-1.3945,-1.394,-1.3972,-1.3954,-1.3941,-1.3952,-1.3952,-1.3977,-1.3981,-1.3989,-1.4021,-1.4023,-1.4002,-1.4003,-1.4004,-1.4005,0,0,0,0,0,0,0,-1.3873,-1.3878,-1.3925,-1.3917,-1.3918,-1.392,-1.3924,-1.3946,-1.3962,-1.3942,-1.3942,-1.3946,-1.3978,-1.3987,-1.399,-1.4023,-1.4002,-1.4004,-1.4005,-1.4006,-1.4077,-1.4077,0,0,0,0,0,0,-1.3869,-1.3876,-1.3924,-1.3926,-1.3895,-1.3922,-1.3926,-1.3937,-1.3961,-1.3964,-1.3947,-1.3946,-1.3983,-1.3987,-1.3991,-1.402,-1.4004,-1.4006,-1.4008,-1.4076,-1.4077,-1.4078,0,0,0,0,0,0,-1.3868,-1.3874,-1.3922,-1.3901,-1.3908,-1.3924,-1.3936,-1.3938,-1.3947,-1.3965,-1.3968,-1.3953,-1.3983,-1.3988,-1.4012,-1.4021,-1.4007,-1.4009,-1.4075,-1.4076,-1.4077,-1.4077,0,0,0,0,0,0,-1.3866,-1.3873,-1.3881,-1.3901,-1.3909,-1.3942,-1.3936,-1.3939,-1.395,-1.395,-1.3971,-1.3975,-1.3983,-1.4009,-1.4014,-1.4024,-1.4011,-1.4075,-1.4076,-1.4077,-1.4077,-1.4078,-1.408,0,0,0,0,0,-1.3864,-1.388,-1.3882,-1.3888,-1.3919,-1.3942,-1.3946,-1.3955,-1.3951,-1.396,-1.3972,-1.3974,-1.402,-1.4011,-1.4017,-1.4028,-1.4074,-1.4076,-1.4077,-1.4076,-1.4078,-1.408,0,0,0,0,0,0,-1.3862,-1.3883,-1.3885,-1.3908,-1.3923,-1.3943,-1.3954,-1.3957,-1.3974,-1.3973,-1.3985,-1.3989,-1.4012,-1.4023,-1.4013,-1.4052,-1.4047,-1.4049,-1.4044,-1.4046,-1.4047,-1.4044,-1.4013,0,0,0,0,0,-1.3864,-1.388,-1.3898,-1.3917,-1.3924,-1.3938,-1.3948,-1.3954,-1.397,-1.3977,-1.399,-1.4006,-1.4024,-1.4036,-1.4054,-1.4079,-1.4083,-1.4089,-1.4091,-1.4092,-1.4094,-1.4107,-1.411,-1.4082,-1.4082,-1.4082,0,0,-1.3869,-1.3883,-1.3892,-1.3917,-1.3929,-1.3946,-1.3943,-1.3961,-1.3974,-1.398,-1.4002,-1.4013,-1.4032,-1.4056,-1.4068,-1.4066,-1.4103,-1.4094,-1.4094,-1.4095,-1.4109,-1.4112,-1.4114,-1.4083,-1.4083,-1.4083,0,0,-1.3886,-1.3898,-1.3915,-1.3927,-1.3945,-1.3955,-1.3959,-1.3978,-1.3985,-1.4008,-1.4013,-1.4029,-1.406,-1.4073,-1.4083,-1.4106,-1.4109,-1.4112,-1.4119,-1.4133,-1.4135,-1.4137,-1.4144,-1.4147,-1.4114,-1.4114,-1.4114,0,-1.389,-1.3914,-1.3923,-1.3941,-1.3952,-1.3958,-1.3975,-1.3987,-1.401,-1.4018,-1.4016,-1.4054,-1.4068,-1.4095,-1.41,-1.4109,-1.4115,-1.4109,-1.4134,-1.4136,-1.4138,-1.4145,-1.4148,-1.4114,-1.4114,-1.4114,-1.4114,0,-1.3918,-1.3935,-1.3947,-1.3968,-1.3981,-1.3998,-1.4011,-1.4023,-1.4028,-1.4037,-1.4061,-1.4077,-1.4098,-1.4105,-1.4111,-1.4134,-1.4132,-1.4131,-1.4126,-1.414,-1.4147,-1.415,-1.4114,-1.4114,-1.4114,-1.4114,0,0,-1.3933,-1.396,-1.3964,-1.3974,-1.3995,-1.4009,-1.4027,-1.4047,-1.4057,-1.4073,-1.4089,-1.4115,-1.4115,-1.4127,-1.4134,-1.4146,-1.4163,-1.4144,-1.4145,-1.4146,-1.4189,-1.4188,-1.4191,-1.4165,-1.4166,-1.4166,-1.4187,0,-1.3952,-1.3983,-1.3993,-1.4019,-1.4035,-1.4041,-1.4057,-1.4072,-1.4082,-1.4098,-1.4109,-1.4127,-1.4126,-1.4133,-1.4146,-1.4158,-1.4171,-1.4157,-1.4179,-1.418,-1.4173,-1.4195,-1.4194,-1.4213,-1.419,-1.419,-1.419,0,-1.3978,-1.3994,-1.4022,-1.4041,-1.4048,-1.4062,-1.4081,-1.4095,-1.4113,-1.4119,-1.4133,-1.4139,-1.4159,-1.4154,-1.4182,-1.4172,-1.4182,-1.419,-1.4191,-1.4192,-1.4185,-1.4196,-1.4219,-1.4221,-1.4195,-1.4195,-1.4194,0,-1.3985,-1.4014,-1.4034,-1.4043,-1.4066,-1.4075,-1.4085,-1.4102,-1.4114,-1.4131,-1.4139,-1.4158,-1.4169,-1.4184,-1.4196,-1.4191,-1.4222,-1.4218,-1.4228,-1.4228,-1.4233,-1.4233,-1.4257,-1.4242,-1.4242,-1.4242,-1.4242,0,-1.4004,-1.4021,-1.4038,-1.405,-1.4069,-1.4081,-1.4099,-1.411,-1.4125,-1.414,-1.4148,-1.4162,-1.4177,-1.4193,-1.4203,-1.4224,-1.4229,-1.4235,-1.4237,-1.4234,-1.4233,-1.424,-1.4238,-1.4242,-1.4242,-1.4242,-1.4242,0,-1.4015,-1.4027,-1.405,-1.407,-1.4075,-1.4088,-1.4106,-1.4118,-1.4129,-1.4148,-1.4153,-1.417,-1.4189,-1.4203,-1.4228,-1.4235,-1.4258,-1.426,-1.4251,-1.4252,-1.4261,-1.426,-1.429,-1.4295,-1.4277,-1.4277,-1.4277,0,-1.4026,-1.4039,-1.406,-1.407,-1.408,-1.4097,-1.4109,-1.4121,-1.4133,-1.4154,-1.4164,-1.4184,-1.4201,-1.4232,-1.4247,-1.4266,-1.4269,-1.4278,-1.4272,-1.4268,-1.4268,-1.4267,-1.4268,-1.4279,-1.4279,-1.4279,-1.4279,0,-1.4044,-1.4049,-1.4065,-1.4083,-1.4097,-1.4112,-1.4127,-1.4135,-1.415,-1.4164,-1.4183,-1.4196,-1.4222,-1.4242,-1.4263,-1.4274,-1.4279,-1.4281,-1.4284,-1.428,-1.4274,-1.4277,-1.4253,-1.428,-1.428,-1.428,-1.428,-1.428,-1.4055,-1.4066,-1.4083,-1.4101,-1.4113,-1.4127,-1.414,-1.4152,-1.4169,-1.419,-1.4197,-1.4217,-1.4235,-1.4264,-1.4276,-1.4292,-1.4292,-1.4297,-1.4298,-1.4298,-1.4298,-1.4273,-1.4297,-1.4297,-1.4297,-1.4297,-1.4297,0,-1.4072,-1.4083,-1.41,-1.412,-1.4134,-1.4137,-1.4155,-1.4166,-1.4184,-1.42,-1.4216,-1.4239,-1.4259,-1.4275,-1.4295,-1.4306,-1.4308,-1.4311,-1.4309,-1.4312,-1.4298,-1.4292,-1.4308,-1.4308,-1.4308,-1.4308,-1.4308,-1.4308,-1.4083,-1.4103,-1.411,-1.4136,-1.4148,-1.4167,-1.4177,-1.419,-1.4203,-1.4228,-1.4243,-1.4254,-1.4271,-1.4292,-1.431,-1.4315,-1.4322,-1.4323,-1.4328,-1.4314,-1.4313,-1.4312,-1.4307,-1.4325,-1.4325,-1.4341,-1.4341,-1.4341]},{"header":{"parameterUnit":"m.s-1","parameterCategory":1,"la1":30.2991,"la2":30.254,"lo1":-89.0895,"lo2":-89.0444,"dy":0.0017,"dx":0.0017,"nx":28,"ny":28,"refTime":"2025-11-25T09:00:00:Z","depth":0,"parameterNumber":3,"parameterNumberName":"V-component_of_WINDS"},"data":[0,0,0,0,0,0,0,0,0,0,0,0,0,0,0,0,0,0,0,0,0,0,0,0,0,0,0,0,0,0,0,0,0,0,0,0,0,0,0,0,0,0,0,0,0,0,0,0,0,0,0,0,0,0,0,0,0,0,4.4877,4.4877,0,4.4945,4.4946,4.4947,4.496,4.4959,4.4958,4.4958,4.5025,4.5028,4.503,0,0,0,0,0,0,0,0,0,0,0,0,0,4.4755,4.4757,4.4877,4.4877,4.4878,4.4945,4.4946,4.4947,4.496,4.4959,4.4958,4.4958,4.5025,4.5027,4.503,0,0,0,0,0,0,0,0,0,0,0,0,0,4.4814,4.4758,4.4876,4.4893,4.4895,4.4945,4.4946,4.4947,4.496,4.4959,4.4958,4.4957,4.5024,4.5027,4.503,4.5068,0,0,4.5041,4.5043,0,0,0,0,0,0,0,0,4.4811,4.4818,4.4889,4.4892,4.4894,4.4943,4.4928,4.4988,4.496,4.4935,4.4958,4.4957,4.4998,4.5004,4.5019,4.5071,4.5074,4.5041,4.5043,4.5045,4.5046,0,0,0,0,0,0,0,4.4806,4.4815,4.4904,4.489,4.4893,4.4896,4.4904,4.4939,4.497,4.4937,4.4938,4.4946,4.5,4.5015,4.502,4.5075,4.5041,4.5044,4.5046,4.5048,4.5165,4.5166,0,0,0,0,0,0,4.48,4.4812,4.4901,4.4906,4.485,4.4899,4.4907,4.4928,4.497,4.4976,4.4947,4.4947,4.501,4.5016,4.5023,4.5072,4.5045,4.5048,4.505,4.5164,4.5166,4.5167,0,0,0,0,0,0,4.4797,4.4808,4.4899,4.4859,4.4871,4.4902,4.4925,4.493,4.4946,4.4978,4.4983,4.4957,4.5009,4.5018,4.5058,4.5074,4.505,4.5053,4.5163,4.5165,4.5166,4.5169,0,0,0,0,0,0,4.4793,4.4807,4.4822,4.486,4.4873,4.4933,4.4926,4.4932,4.4952,4.4952,4.4989,4.4994,4.5009,4.5052,4.5061,4.5079,4.5056,4.5162,4.5164,4.5166,4.5168,4.5171,4.5173,0,0,0,0,0,4.4789,4.4818,4.4822,4.4833,4.4893,4.4934,4.4942,4.496,4.4953,4.4969,4.4989,4.4993,4.5071,4.5056,4.5066,4.5085,4.5161,4.5163,4.5165,4.5167,4.517,4.5173,0,0,0,0,0,0,4.478,4.4824,4.4828,4.4871,4.4899,4.4936,4.4956,4.4962,4.4992,4.4991,4.5011,4.5019,4.5058,4.5075,4.5058,4.5125,4.5115,4.512,4.5113,4.5117,4.5119,4.5115,4.5058,0,0,0,0,0,4.4783,4.4814,4.485,4.4884,4.4898,4.4925,4.4943,4.4955,4.4984,4.4996,4.5019,4.5047,4.5078,4.5098,4.5128,4.517,4.5179,4.5188,4.5191,4.5193,4.5197,4.5223,4.5228,4.5174,4.5174,4.5174,0,0,4.479,4.4817,4.4835,4.4883,4.4906,4.4938,4.4934,4.4967,4.4991,4.5,4.5041,4.5059,4.5091,4.5133,4.5152,4.5148,4.5213,4.5196,4.5197,4.52,4.5226,4.5231,4.5235,4.5176,4.5176,4.5175,0,0,4.4818,4.4842,4.4874,4.4898,4.4933,4.4951,4.4959,4.4995,4.5009,4.5049,4.5058,4.5086,4.5138,4.5162,4.518,4.5219,4.5225,4.5228,4.5243,4.5268,4.5272,4.5276,4.5293,4.5298,4.5232,4.5232,4.5232,0,4.4822,4.487,4.4889,4.4923,4.4944,4.4956,4.4989,4.5011,4.5053,4.5068,4.5063,4.5131,4.5153,4.5202,4.5212,4.5225,4.5236,4.5225,4.527,4.5274,4.5278,4.5294,4.53,4.5232,4.5232,4.5232,4.5232,0,4.4874,4.4907,4.4929,4.4973,4.4996,4.5029,4.5053,4.5075,4.5084,4.5103,4.5145,4.5172,4.5209,4.5221,4.523,4.5272,4.5269,4.5266,4.5257,4.5284,4.5299,4.5305,4.5233,4.5233,4.5233,4.5233,0,0,4.4899,4.4954,4.4962,4.4983,4.5023,4.5049,4.5083,4.5121,4.514,4.5169,4.5199,4.5243,4.5243,4.5264,4.5275,4.5297,4.533,4.5293,4.5294,4.5301,4.538,4.5383,4.539,4.5333,4.5334,4.5335,4.5378,0,4.4934,4.4996,4.5015,4.5067,4.51,4.5111,4.5141,4.5169,4.5187,4.5217,4.5236,4.5269,4.5264,4.5278,4.5299,4.5321,4.5346,4.5318,4.5361,4.5363,4.5355,4.5397,4.54,4.544,4.5384,4.5385,4.5386,0,4.4984,4.5016,4.5072,4.5111,4.5125,4.5151,4.5189,4.5216,4.5249,4.5261,4.5285,4.5296,4.5332,4.5319,4.537,4.5351,4.5369,4.5383,4.5385,4.5391,4.5377,4.5407,4.5453,4.5459,4.5395,4.5394,4.5393,0,4.4999,4.5056,4.5098,4.5115,4.5161,4.518,4.5199,4.5231,4.5253,4.5285,4.53,4.5335,4.5354,4.5381,4.5401,4.539,4.5451,4.5439,4.5462,4.5462,4.5476,4.5475,4.5528,4.5484,4.5484,4.5484,4.5484,0,4.5038,4.5072,4.5106,4.5132,4.5171,4.5192,4.523,4.525,4.5279,4.5309,4.532,4.5347,4.5371,4.5402,4.5417,4.5458,4.5466,4.5477,4.5481,4.5478,4.5476,4.5491,4.549,4.5486,4.5485,4.5485,4.5485,0,4.5063,4.5087,4.5133,4.5173,4.5184,4.5211,4.5246,4.5271,4.529,4.5328,4.5338,4.5367,4.5405,4.5427,4.5473,4.5483,4.553,4.5531,4.5519,4.5522,4.5544,4.5543,4.561,4.5621,4.5568,4.5568,4.5569,0,4.5087,4.5114,4.5157,4.5179,4.52,4.5234,4.5257,4.5279,4.5303,4.5343,4.5364,4.5402,4.5434,4.5493,4.5518,4.5554,4.5558,4.5579,4.5564,4.556,4.5562,4.5561,4.5565,4.5583,4.5583,4.5583,4.5584,0,4.5128,4.5139,4.5173,4.5211,4.5239,4.527,4.5301,4.5318,4.5344,4.5371,4.541,4.5435,4.5484,4.5522,4.5561,4.558,4.5587,4.5588,4.5596,4.5594,4.5587,4.5594,4.5529,4.5587,4.5587,4.5586,4.5586,4.5586,4.5155,4.518,4.5216,4.5254,4.5279,4.5308,4.5335,4.5358,4.5392,4.5434,4.5445,4.5486,4.5519,4.5572,4.5593,4.5626,4.5623,4.5633,4.5636,4.5639,4.5641,4.558,4.5633,4.5633,4.5633,4.5632,4.5632,0,4.5198,4.5222,4.5257,4.5301,4.5331,4.5335,4.537,4.5395,4.5432,4.5462,4.5494,4.554,4.5578,4.5607,4.5646,4.5667,4.5671,4.5676,4.5676,4.5681,4.5641,4.5631,4.5673,4.5673,4.5673,4.5673,4.5672,4.5672,4.5225,4.527,4.5285,4.5343,4.5366,4.5408,4.5428,4.5455,4.548,4.5532,4.5564,4.5583,4.5613,4.5655,4.569,4.5697,4.5712,4.5718,4.5726,4.5688,4.5684,4.568,4.5671,4.572,4.572,4.5764,4.5764,4.5765]}]]